Time,TemperatureF,DewpointF,PressureIn,WindDirection,WindDirectionDegrees,WindSpeedMPH,WindSpeedGustMPH,Humidity,HourlyPrecipIn,Conditions,Clouds,dailyrainin,SolarRadiationWatts/m^2,SoftwareType,DateUTC
2013-04-07 00:03:00,59.0,32.0,-100.00,SSE,151,7.0,14.0,36,0.00,,,0.00,0.000000,,2013-04-07 04:03:00,
2013-04-07 00:32:00,57.0,33.0,-100.00,SE,141,6.0,13.0,40,0.00,,,0.00,0.000000,,2013-04-07 04:32:00,
2013-04-07 00:43:00,57.0,33.0,-100.00,SE,141,6.0,13.0,40,0.00,,,0.00,0.000000,,2013-04-07 04:43:00,
2013-04-07 00:53:00,57.0,33.0,-100.00,SE,141,6.0,13.0,40,0.00,,,0.00,0.000000,,2013-04-07 04:53:00,
2013-04-07 01:02:00,57.0,33.0,-100.00,SE,141,6.0,13.0,40,0.00,,,0.00,0.000000,,2013-04-07 05:02:00,
2013-04-07 01:34:00,56.0,33.0,-100.00,SE,144,6.0,9.0,42,0.00,,,0.00,0.000000,,2013-04-07 05:34:00,
2013-04-07 01:43:00,56.0,33.0,-100.00,SE,144,6.0,9.0,42,0.00,,,0.00,0.000000,,2013-04-07 05:43:00,
2013-04-07 01:53:00,56.0,33.0,-100.00,SE,144,6.0,9.0,42,0.00,,,0.00,0.000000,,2013-04-07 05:53:00,
2013-04-07 02:02:00,56.0,33.0,-100.00,SE,144,6.0,9.0,42,0.00,,,0.00,0.000000,,2013-04-07 06:02:00,
2013-04-07 02:33:00,54.0,34.0,-100.00,SE,144,5.0,9.0,46,0.00,,,0.00,0.000000,,2013-04-07 06:33:00,
2013-04-07 02:43:00,54.0,34.0,-100.00,SE,144,5.0,9.0,46,0.00,,,0.00,0.000000,,2013-04-07 06:43:00,
2013-04-07 02:53:00,54.0,34.0,-100.00,SE,144,5.0,9.0,46,0.00,,,0.00,0.000000,,2013-04-07 06:53:00,
2013-04-07 03:02:00,54.0,34.0,-100.00,SE,144,5.0,9.0,46,0.00,,,0.00,0.000000,,2013-04-07 07:02:00,
2013-04-07 03:33:00,54.0,34.0,-100.00,SSE,150,6.0,9.0,47,0.00,,,0.00,0.000000,,2013-04-07 07:33:00,
2013-04-07 03:42:00,54.0,34.0,-100.00,SSE,150,6.0,9.0,47,0.00,,,0.00,0.000000,,2013-04-07 07:42:00,
2013-04-07 03:52:00,54.0,34.0,-100.00,SSE,150,6.0,9.0,47,0.00,,,0.00,0.000000,,2013-04-07 07:52:00,
2013-04-07 04:02:00,54.0,34.0,-100.00,SSE,150,6.0,9.0,47,0.00,,,0.00,0.000000,,2013-04-07 08:02:00,
2013-04-07 04:33:00,52.0,35.0,-100.00,SSE,161,5.0,8.0,52,0.00,,,0.00,0.000000,,2013-04-07 08:33:00,
2013-04-07 04:43:00,52.0,35.0,-100.00,SSE,161,5.0,8.0,52,0.00,,,0.00,0.000000,,2013-04-07 08:43:00,
2013-04-07 04:53:00,52.0,35.0,-100.00,SSE,161,5.0,8.0,52,0.00,,,0.00,0.000000,,2013-04-07 08:53:00,
2013-04-07 05:02:00,52.0,35.0,-100.00,SSE,161,5.0,8.0,52,0.00,,,0.00,0.000000,,2013-04-07 09:02:00,
2013-04-07 05:34:00,54.0,37.0,-100.00,SSE,164,7.0,12.0,52,0.00,,,0.00,0.000000,,2013-04-07 09:34:00,
2013-04-07 05:45:00,54.0,37.0,-100.00,SSE,164,7.0,12.0,52,0.00,,,0.00,0.000000,,2013-04-07 09:45:00,
2013-04-07 05:54:00,54.0,37.0,-100.00,SSE,164,7.0,12.0,52,0.00,,,0.00,0.000000,,2013-04-07 09:54:00,
2013-04-07 06:04:00,54.0,37.0,-100.00,SSE,164,7.0,12.0,52,0.00,,,0.00,0.000000,,2013-04-07 10:04:00,
2013-04-07 06:34:00,54.0,38.0,-100.00,SSE,157,7.0,11.0,55,0.00,,,0.00,0.000000,,2013-04-07 10:34:00,
2013-04-07 06:43:00,54.0,38.0,-100.00,SSE,157,7.0,11.0,55,0.00,,,0.00,0.000000,,2013-04-07 10:43:00,
2013-04-07 06:54:00,54.0,38.0,-100.00,SSE,157,7.0,11.0,55,0.00,,,0.00,0.000000,,2013-04-07 10:54:00,
2013-04-07 07:03:00,54.0,38.0,-100.00,SSE,157,7.0,11.0,55,0.00,,,0.00,0.000000,,2013-04-07 11:03:00,
2013-04-07 07:33:00,54.0,40.0,-100.00,South,184,8.0,14.0,58,0.00,,,0.00,0.000000,,2013-04-07 11:33:00,
2013-04-07 07:43:00,54.0,40.0,-100.00,South,184,8.0,14.0,58,0.00,,,0.00,0.000000,,2013-04-07 11:43:00,
2013-04-07 07:53:00,54.0,40.0,-100.00,South,184,8.0,14.0,58,0.00,,,0.00,0.000000,,2013-04-07 11:53:00,
2013-04-07 08:03:00,54.0,40.0,-100.00,South,184,8.0,14.0,58,0.00,,,0.00,0.000000,,2013-04-07 12:03:00,
2013-04-07 08:05:00,54.0,39.0,-100.00,SSE,162,9.0,16.0,56,0.00,,,0.00,34.000000,,2013-04-07 12:05:00,
2013-04-07 08:35:00,54.0,39.0,-100.00,SSE,162,9.0,16.0,56,0.00,,,0.00,34.000000,,2013-04-07 12:35:00,
2013-04-07 08:43:00,54.0,39.0,-100.00,SSE,162,9.0,16.0,56,0.00,,,0.00,34.000000,,2013-04-07 12:43:00,
2013-04-07 08:54:00,54.0,39.0,-100.00,SSE,162,9.0,16.0,56,0.00,,,0.00,34.000000,,2013-04-07 12:54:00,
2013-04-07 09:33:00,57.0,41.0,-100.00,South,174,9.0,15.0,54,0.00,,,0.00,196.000000,,2013-04-07 13:33:00,
2013-04-07 09:43:00,57.0,41.0,-100.00,South,174,9.0,15.0,54,0.00,,,0.00,196.000000,,2013-04-07 13:43:00,
2013-04-07 09:53:00,57.0,41.0,-100.00,South,174,9.0,15.0,54,0.00,,,0.00,196.000000,,2013-04-07 13:53:00,
2013-04-07 10:02:00,57.0,41.0,-100.00,South,174,9.0,15.0,54,0.00,,,0.00,196.000000,,2013-04-07 14:02:00,
2013-04-07 10:33:00,60.0,43.0,-100.00,South,191,9.0,16.0,54,0.00,,,0.00,367.000000,,2013-04-07 14:33:00,
2013-04-07 10:44:00,60.0,43.0,-100.00,South,191,9.0,16.0,54,0.00,,,0.00,367.000000,,2013-04-07 14:44:00,
2013-04-07 10:55:00,60.0,43.0,-100.00,South,191,9.0,16.0,54,0.00,,,0.00,367.000000,,2013-04-07 14:55:00,
2013-04-07 11:03:00,60.0,43.0,-100.00,South,191,9.0,16.0,54,0.00,,,0.00,367.000000,,2013-04-07 15:03:00,
2013-04-07 11:05:00,65.0,45.0,-100.00,SSW,193,9.0,16.0,49,0.00,,,0.00,701.000000,,2013-04-07 15:05:00,
2013-04-07 11:35:00,65.0,45.0,-100.00,SSW,193,9.0,16.0,49,0.00,,,0.00,701.000000,,2013-04-07 15:35:00,
2013-04-07 11:45:00,65.0,45.0,-100.00,SSW,193,9.0,16.0,49,0.00,,,0.00,701.000000,,2013-04-07 15:45:00,
2013-04-07 11:55:00,65.0,45.0,-100.00,SSW,193,9.0,16.0,49,0.00,,,0.00,701.000000,,2013-04-07 15:55:00,
2013-04-07 12:05:00,66.0,45.0,-100.00,SSW,198,10.0,19.0,47,0.00,,,0.00,760.000000,,2013-04-07 16:05:00,
2013-04-07 12:34:00,66.0,45.0,-100.00,SSW,198,10.0,19.0,47,0.00,,,0.00,760.000000,,2013-04-07 16:34:00,
2013-04-07 12:44:00,66.0,45.0,-100.00,SSW,198,10.0,19.0,47,0.00,,,0.00,760.000000,,2013-04-07 16:44:00,
2013-04-07 12:54:00,66.0,45.0,-100.00,SSW,198,10.0,19.0,47,0.00,,,0.00,760.000000,,2013-04-07 16:54:00,
2013-04-07 13:34:00,67.0,44.0,-100.00,SSW,196,12.0,22.0,44,0.00,,,0.00,917.000000,,2013-04-07 17:34:00,
2013-04-07 13:44:00,67.0,44.0,-100.00,SSW,196,12.0,22.0,44,0.00,,,0.00,917.000000,,2013-04-07 17:44:00,
2013-04-07 13:54:00,67.0,44.0,-100.00,SSW,196,12.0,22.0,44,0.00,,,0.00,917.000000,,2013-04-07 17:54:00,
2013-04-07 14:03:00,67.0,44.0,-100.00,SSW,196,12.0,22.0,44,0.00,,,0.00,917.000000,,2013-04-07 18:03:00,
2013-04-07 14:33:00,68.0,45.0,-100.00,SSW,204,10.0,21.0,43,0.00,,,0.00,983.000000,,2013-04-07 18:33:00,
2013-04-07 14:44:00,68.0,45.0,-100.00,SSW,204,10.0,21.0,43,0.00,,,0.00,983.000000,,2013-04-07 18:44:00,
2013-04-07 14:53:00,68.0,45.0,-100.00,SSW,204,10.0,21.0,43,0.00,,,0.00,983.000000,,2013-04-07 18:53:00,
2013-04-07 15:03:00,68.0,45.0,-100.00,SSW,204,10.0,21.0,43,0.00,,,0.00,983.000000,,2013-04-07 19:03:00,
2013-04-07 15:33:00,69.0,42.0,-100.00,SW,224,10.0,21.0,38,0.00,,,0.00,970.000000,,2013-04-07 19:33:00,
2013-04-07 15:43:00,69.0,42.0,-100.00,SW,224,10.0,21.0,38,0.00,,,0.00,970.000000,,2013-04-07 19:43:00,
2013-04-07 15:55:00,69.0,42.0,-100.00,SW,224,10.0,21.0,38,0.00,,,0.00,970.000000,,2013-04-07 19:55:00,
2013-04-07 16:03:00,69.0,42.0,-100.00,SW,224,10.0,21.0,38,0.00,,,0.00,970.000000,,2013-04-07 20:03:00,
2013-04-07 16:33:00,70.0,43.0,-100.00,SW,226,7.0,17.0,37,0.00,,,0.00,786.000000,,2013-04-07 20:33:00,
2013-04-07 16:44:00,70.0,43.0,-100.00,SW,226,7.0,17.0,37,0.00,,,0.00,786.000000,,2013-04-07 20:44:00,
2013-04-07 16:55:00,70.0,43.0,-100.00,SW,226,7.0,17.0,37,0.00,,,0.00,786.000000,,2013-04-07 20:55:00,
2013-04-07 17:04:00,70.0,43.0,-100.00,SW,226,7.0,17.0,37,0.00,,,0.00,786.000000,,2013-04-07 21:04:00,
2013-04-07 17:05:00,70.0,43.0,-100.00,WSW,237,9.0,17.0,37,0.00,,,0.00,433.000000,,2013-04-07 21:05:00,
2013-04-07 17:35:00,70.0,43.0,-100.00,WSW,237,9.0,17.0,37,0.00,,,0.00,433.000000,,2013-04-07 21:35:00,
2013-04-07 17:45:00,70.0,43.0,-100.00,WSW,237,9.0,17.0,37,0.00,,,0.00,433.000000,,2013-04-07 21:45:00,
2013-04-07 17:55:00,70.0,43.0,-100.00,WSW,237,9.0,17.0,37,0.00,,,0.00,433.000000,,2013-04-07 21:55:00,
2013-04-07 18:34:00,70.0,43.0,-100.00,SSW,193,10.0,21.0,37,0.00,,,0.00,416.000000,,2013-04-07 22:34:00,
2013-04-07 18:44:00,70.0,43.0,-100.00,SSW,193,10.0,21.0,37,0.00,,,0.00,416.000000,,2013-04-07 22:44:00,
2013-04-07 18:54:00,70.0,43.0,-100.00,SSW,193,10.0,21.0,37,0.00,,,0.00,416.000000,,2013-04-07 22:54:00,
2013-04-07 19:04:00,70.0,43.0,-100.00,SSW,193,10.0,21.0,37,0.00,,,0.00,416.000000,,2013-04-07 23:04:00,
2013-04-07 19:33:00,69.0,41.0,-100.00,SSW,193,8.0,16.0,36,0.00,,,0.00,271.000000,,2013-04-07 23:33:00,
2013-04-07 19:43:00,69.0,41.0,-100.00,SSW,193,8.0,16.0,36,0.00,,,0.00,271.000000,,2013-04-07 23:43:00,
2013-04-07 19:53:00,69.0,41.0,-100.00,SSW,193,8.0,16.0,36,0.00,,,0.00,271.000000,,2013-04-07 23:53:00,
2013-04-07 20:03:00,69.0,41.0,-100.00,SSW,193,8.0,16.0,36,0.00,,,0.00,271.000000,,2013-04-08 00:03:00,
2013-04-07 20:33:00,65.0,41.0,-100.00,South,186,6.0,11.0,41,0.00,,,0.00,47.000000,,2013-04-08 00:33:00,
2013-04-07 20:43:00,65.0,41.0,-100.00,South,186,6.0,11.0,41,0.00,,,0.00,47.000000,,2013-04-08 00:43:00,
2013-04-07 20:53:00,65.0,41.0,-100.00,South,186,6.0,11.0,41,0.00,,,0.00,47.000000,,2013-04-08 00:53:00,
2013-04-07 21:03:00,65.0,41.0,-100.00,South,186,6.0,11.0,41,0.00,,,0.00,47.000000,,2013-04-08 01:03:00,
2013-04-07 21:34:00,62.0,43.0,-100.00,SSE,162,3.0,7.0,49,0.00,,,0.00,0.000000,,2013-04-08 01:34:00,
2013-04-07 21:45:00,62.0,43.0,-100.00,SSE,162,3.0,7.0,49,0.00,,,0.00,0.000000,,2013-04-08 01:45:00,
2013-04-07 21:55:00,62.0,43.0,-100.00,SSE,162,3.0,7.0,49,0.00,,,0.00,0.000000,,2013-04-08 01:55:00,
2013-04-07 22:03:00,62.0,43.0,-100.00,SSE,162,3.0,7.0,49,0.00,,,0.00,0.000000,,2013-04-08 02:03:00,
2013-04-07 22:05:00,63.0,42.0,-100.00,SSE,148,6.0,10.0,47,0.00,,,0.00,0.000000,,2013-04-08 02:05:00,
2013-04-07 22:33:00,63.0,42.0,-100.00,SSE,148,6.0,10.0,47,0.00,,,0.00,0.000000,,2013-04-08 02:33:00,
2013-04-07 22:49:00,63.0,42.0,-100.00,SSE,148,6.0,10.0,47,0.00,,,0.00,0.000000,,2013-04-08 02:49:00,
2013-04-07 22:55:00,63.0,42.0,-100.00,SSE,148,6.0,10.0,47,0.00,,,0.00,0.000000,,2013-04-08 02:55:00,
2013-04-07 23:37:00,60.0,42.0,-100.00,SE,131,3.0,10.0,51,0.00,,,0.00,0.000000,,2013-04-08 03:37:00,
2013-04-07 23:48:00,60.0,42.0,-100.00,SE,131,3.0,10.0,51,0.00,,,0.00,0.000000,,2013-04-08 03:48:00,
2013-04-07 23:58:00,60.0,42.0,-100.00,SE,131,3.0,10.0,51,0.00,,,0.00,0.000000,,2013-04-08 03:58:00,